Weather History for Las Cruces, NM

Change the Weather History Date:

Sunday, September 22, 2013

  Actual Average Record
Temperature  
Mean Temperature 68 °F -  
Max Temperature 83 °F 83 °F 95 °F (2005)
Min Temperature 54 °F 60 °F 53 °F (2002)
Cooling Degree Days 4    
Growing Degree Days 18 (Base 50)    
Moisture  
Dew Point 52 °F    
Average Humidity 56    
Maximum Humidity 92    
Minimum Humidity 30    
Precipitation  
Precipitation 0.00 in - - ()
Sea Level Pressure  
Sea Level Pressure 29.92 in    
Wind  
Wind Speed 7 mph (South)    
Max Wind Speed 17 mph    
Max Gust Speed 21 mph    
Visibility 10 miles    
Events      
Averages and records for this station are not official NWS values.
T = Trace of Precipitation, MM = Missing Value Source: NWS Daily Summary

Daily Weather History Graph

Daily Weather History Graph

Search for Another Location

Airport:

Trip Planner

Search our weather history database for the weather conditions in past years. The results will help you decide how hot, cold, wet, or windy it might be!

Date:

Astronomy

Sep. 22, 2013 Rise Set
Actual Time 6:56 AM MDT 7:03 PM MDT
Civil Twilight 6:31 AM MDT 7:28 PM MDT
Nautical Twilight 6:03 AM MDT 7:56 PM MDT
Astronomical Twilight 5:34 AM MDT 8:25 PM MDT
Moon 9:10 PM MDT (9/22) 10:05 AM MDT (9/22)
Length of Visible Light 12h 56m
Length of Day
12h 07m
Waning Gibbous, 88% of the Moon is Illuminated
Sep 22
Waning Gibbous
Sep 26
Last Quarter
Oct 4
New
Oct 11
First Quarter
Oct 18
Full

Hourly Weather History & Observations

Time (MDT) Temp. Dew Point Humidity Pressure Visibility Wind Dir Wind Speed Gust Speed Precip Events Conditions
12:15 AM 64.4 °F 53.4 °F 67% 30.02 in 10.0 mi SE 5.8 mph - N/A   Clear
12:35 AM 63.7 °F 53.2 °F 69% 30.02 in 10.0 mi SE 4.6 mph - N/A   Clear
12:55 AM 63.3 °F 53.4 °F 70% 30.02 in 10.0 mi SE 5.8 mph - N/A   Clear
1:15 AM 62.8 °F 53.4 °F 71% 30.01 in 10.0 mi SE 4.6 mph - N/A   Clear
1:35 AM 62.4 °F 53.6 °F 73% 30.01 in 10.0 mi SE 4.6 mph - N/A   Clear
1:55 AM 62.4 °F 53.6 °F 73% 30.01 in 10.0 mi SE 4.6 mph - N/A   Clear
2:15 AM 62.1 °F 53.6 °F 74% 30.00 in 10.0 mi SE 5.8 mph - N/A   Clear
2:35 AM 61.7 °F 53.6 °F 75% 30.00 in 10.0 mi SE 4.6 mph - N/A   Clear
2:55 AM 61.2 °F 53.6 °F 76% 29.99 in 10.0 mi SSE 5.8 mph - N/A   Clear
3:15 AM 60.8 °F 53.8 °F 78% 29.99 in 10.0 mi SSE 5.8 mph - N/A   Clear
3:35 AM 60.3 °F 53.6 °F 79% 29.98 in 10.0 mi SSE 4.6 mph - N/A   Clear
3:55 AM 59.9 °F 53.6 °F 80% 29.98 in 10.0 mi SE 6.9 mph - N/A   Clear
4:15 AM 59.7 °F 53.6 °F 80% 29.98 in 10.0 mi SSE 4.6 mph - N/A   Clear
4:35 AM 59.9 °F 53.6 °F 80% 29.97 in 10.0 mi SSE 4.6 mph - N/A   Clear
4:55 AM 59.0 °F 53.2 °F 81% 29.97 in 10.0 mi SSE 4.6 mph - N/A   Clear
5:15 AM 59.0 °F 53.1 °F 81% 29.97 in 10.0 mi SSE 4.6 mph - N/A   Clear
5:35 AM 58.5 °F 52.9 °F 82% 29.97 in 10.0 mi SE 5.8 mph - N/A   Clear
5:55 AM 59.0 °F 53.1 °F 81% 29.98 in 10.0 mi SSE 5.8 mph - N/A   Clear
6:15 AM 58.3 °F 52.9 °F 82% 29.98 in 10.0 mi Calm Calm - N/A   Clear
6:35 AM 56.1 °F 52.7 °F 88% 29.98 in 10.0 mi Calm Calm - N/A   Clear
6:55 AM 54.9 °F 52.7 °F 92% 29.98 in 10.0 mi Calm Calm - N/A   Clear
7:15 AM 55.0 °F 52.7 °F 92% 29.98 in 10.0 mi Calm Calm - N/A   Clear
7:35 AM 57.4 °F 54.1 °F 89% 29.99 in 10.0 mi Calm Calm - N/A   Clear
7:55 AM 60.6 °F 55.0 °F 82% 29.99 in 10.0 mi Calm Calm - N/A   Clear
8:15 AM 64.0 °F 54.7 °F 72% 29.99 in 10.0 mi SE 6.9 mph - N/A   Clear
8:35 AM 64.9 °F 54.3 °F 68% 29.99 in 10.0 mi SE 6.9 mph - N/A   Clear
8:55 AM 66.4 °F 54.5 °F 66% 29.99 in 10.0 mi SE 5.8 mph - N/A   Clear
9:15 AM 67.8 °F 54.3 °F 62% 30.00 in 10.0 mi SE 8.1 mph - N/A   Clear
9:35 AM 69.1 °F 54.1 °F 59% 29.99 in 10.0 mi SSE 8.1 mph - N/A   Clear
9:55 AM 70.3 °F 53.8 °F 56% 29.99 in 10.0 mi SE 10.4 mph - N/A   Clear
10:15 AM 71.1 °F 53.8 °F 54% 29.99 in 10.0 mi SE 11.5 mph - N/A   Clear
10:35 AM 72.0 °F 53.8 °F 53% 29.98 in 10.0 mi SSE 10.4 mph - N/A   Clear
10:55 AM 72.9 °F 54.0 °F 51% 29.98 in 10.0 mi SSE 11.5 mph 16.1 mph N/A   Clear
11:15 AM 73.6 °F 53.8 °F 50% 29.98 in 10.0 mi SSE 8.1 mph 17.3 mph N/A   Clear
11:35 AM 74.7 °F 54.1 °F 49% 29.96 in 10.0 mi SE 11.5 mph 16.1 mph N/A   Clear
11:55 AM 75.0 °F 53.4 °F 47% 29.95 in 10.0 mi SSE 6.9 mph 10.4 mph N/A   Clear
12:15 PM 76.3 °F 53.4 °F 45% 29.95 in 10.0 mi South 11.5 mph 17.3 mph N/A   Clear
12:35 PM 77.2 °F 53.6 °F 44% 29.94 in 10.0 mi South 9.2 mph 17.3 mph N/A   Clear
12:55 PM 78.1 °F 53.4 °F 42% 29.93 in 10.0 mi SSE 9.2 mph - N/A   Clear
1:15 PM 79.0 °F 52.7 °F 40% 29.92 in 10.0 mi SSE 8.1 mph - N/A   Clear
1:35 PM 79.9 °F 53.1 °F 39% 29.91 in 10.0 mi South 8.1 mph 16.1 mph N/A   Clear
1:55 PM 80.1 °F 52.9 °F 39% 29.90 in 10.0 mi South 10.4 mph - N/A   Clear
2:15 PM 80.4 °F 51.8 °F 37% 29.89 in 10.0 mi South 8.1 mph 17.3 mph N/A   Clear
2:35 PM 81.7 °F 51.3 °F 35% 29.88 in 10.0 mi SW 5.8 mph - N/A   Clear
2:55 PM 81.7 °F 51.3 °F 35% 29.88 in 10.0 mi South 8.1 mph - N/A   Clear
3:15 PM 81.7 °F 50.9 °F 34% 29.87 in 10.0 mi SSW 5.8 mph 10.4 mph N/A   Scattered Clouds
3:35 PM 82.8 °F 51.1 °F 33% 29.85 in 10.0 mi South 9.2 mph - N/A   Scattered Clouds
3:55 PM 82.9 °F 51.3 °F 33% 29.83 in 10.0 mi SE 11.5 mph - N/A   Clear
4:15 PM 83.1 °F 50.9 °F 33% 29.82 in 10.0 mi SSE 10.4 mph 16.1 mph N/A   Clear
4:35 PM 83.3 °F 50.0 °F 31% 29.81 in 10.0 mi SSW 10.4 mph 20.7 mph N/A   Clear
4:55 PM 83.1 °F 49.5 °F 31% 29.81 in 10.0 mi South 17.3 mph 20.7 mph N/A   Clear
5:15 PM 83.1 °F 49.1 °F 31% 29.80 in 10.0 mi SSE 13.8 mph 19.6 mph N/A   Clear
5:35 PM 82.9 °F 48.9 °F 31% 29.80 in 10.0 mi South 15.0 mph 18.4 mph N/A   Clear
5:55 PM 82.4 °F 48.2 °F 30% 29.80 in 10.0 mi South 12.7 mph 18.4 mph N/A   Scattered Clouds
6:15 PM 81.1 °F 47.7 °F 31% 29.80 in 10.0 mi South 12.7 mph - N/A   Scattered Clouds
6:35 PM 79.3 °F 47.8 °F 33% 29.80 in 10.0 mi South 8.1 mph - N/A   Clear
6:55 PM 78.8 °F 47.3 °F 33% 29.80 in 10.0 mi South 10.4 mph - N/A   Scattered Clouds
7:15 PM 78.8 °F 47.5 °F 33% 29.80 in 10.0 mi South 9.2 mph - N/A   Mostly Cloudy
7:35 PM 77.9 °F 48.2 °F 35% 29.80 in 10.0 mi SSW 16.1 mph - N/A   Scattered Clouds
7:55 PM 75.4 °F 51.8 °F 44% 29.80 in 10.0 mi South 15.0 mph 18.4 mph N/A   Scattered Clouds
8:15 PM 73.6 °F 52.7 °F 48% 29.80 in 10.0 mi South 10.4 mph - N/A   Scattered Clouds
8:35 PM 73.6 °F 52.7 °F 48% 29.83 in 10.0 mi SSW 5.8 mph - N/A   Mostly Cloudy
8:55 PM 73.4 °F 53.1 °F 49% 29.83 in 10.0 mi SSW 4.6 mph - N/A   Overcast
9:15 PM 73.6 °F 52.7 °F 48% 29.84 in 10.0 mi South 3.5 mph - N/A   Mostly Cloudy
9:35 PM 72.9 °F 52.0 °F 48% 29.84 in 10.0 mi WSW 5.8 mph - N/A   Scattered Clouds
9:55 PM 73.8 °F 50.4 °F 44% 29.84 in 10.0 mi SSW 6.9 mph - N/A   Scattered Clouds
10:15 PM 72.0 °F 51.6 °F 49% 29.84 in 10.0 mi WSW 5.8 mph - N/A   Clear
10:35 PM 69.8 °F 52.9 °F 55% 29.84 in 10.0 mi West 5.8 mph - N/A   Clear
10:55 PM 68.9 °F 53.6 °F 58% 29.84 in 10.0 mi WSW 5.8 mph - N/A   Scattered Clouds
11:15 PM 68.7 °F 54.0 °F 59% 29.84 in 10.0 mi WSW 5.8 mph - N/A   Scattered Clouds
11:35 PM 68.2 °F 54.3 °F 61% 29.84 in 10.0 mi West 10.4 mph - N/A   Clear
11:55 PM 69.8 °F 54.5 °F 58% 29.84 in 10.0 mi West 11.5 mph - N/A   Clear